STARLINK-33895

Satellite information

Favourite Embed

Satellite Type and Status

PAYLOADIN ORBIT

Key statistics

Satellite STARLINK-33895 at a glance.

Uptime

214

Days in orbit

Revolutions

≈ 15.0

Per day

Orbit

LEO

Low Earth Orbit

Inclination

70.0

Latest

Satellite identification and parameters

Extended collection of information and parameters for STARLINK-33895.

Object identification

Identified? True

Debris? False

Object name: STARLINK-33895

International designator: 2025-098J

Object number (NORAD): 63934

Object ID (CCSDS): 63934

Country: UNITED STATES OF AMERICA (US)

Current information (Y/N): Y

RCS size: LARGE

Orbital parameters

Period: 96.107 minutes

Inclination: 70.0013 deg

SMA: 6950.182 km

Apoapsis: 574.235 km

Periapsis: 569.86 km

RAAN: 135.0664 deg

Eccentricy: 0.00031473

Argument of periapsis: 271.7423 deg

Mean anomaly: 88.3375 deg

Mean motion: 14.98333484 rev/day

Mean motion (dot): 0.00004926 rev/day2

B* drag term: 0.00042030801 1/REarth

Two-line elements (TLE)

Creation date: Dec. 12, 2025, 10:14 a.m.

Reference frame: TEME

Reference center: EARTH

Epoch: Dec. 12, 2025, 3:53 a.m. UTC

TLE line 0: 0 STARLINK-33895

TLE line 1: 1 63934U 25098J 25346.16235833 .00004926 00000-0 42031-3 0 9994

TLE line 2: 2 63934 70.0013 135.0664 0003147 271.7423 88.3375 14.98333484 33461

Live tracking on map

Real-time ground track for satellite STARLINK-33895.

In-orbit conjunctions

There are no conjunctions computed for STARLINK-33895, at the moment. Check back to stay up to date, as we update our databases every day.

Go to all conjunctions

Associated space launch

A batch of 26 satellites for the Starlink mega-constellation - SpaceX's project for space-based Internet communication system.

STARLINK-33895 was lifted into orbit during the mission ‘Falcon 9 Block 5 | Starlink Group 15-4’, on board a Falcon 9 space rocket.

The launch took place on May 13, 2025, 1:15 a.m. from Space Launch Complex 4E.

For more information about the launch, click the button.

Launch to space Falcon 9 Block 5 | Starlink Group 15-4
Falcon 9 Block 5 | Starlink Group 15-4

Agency: SpaceX

Status: Launch Successful

Launch date: May 13, 2025, 1:15 a.m. UTC

Rocket: Falcon 9

Launch pad: Space Launch Complex 4E

Location: Vandenberg SFB, CA, USA

...

Latest news about this satellite

News about space launch
Launch Roundup: Orbital launches from five countries planned

On the heels of a busy April, activity is ramping up for May with launches… The post Launch Roundup: Orbital launches from five countries planned appeared first on NASASpaceFlight.com.

News about space launch
Live coverage: SpaceX to launch 26 Starlink satellites on Falcon 9 rocket from Vandenberg SFB

The Falcon 9 rocket will fly in a south-easterly trajectory once its lifts off from Space Launch Complex 4 East at Vandenberg Space Force Base. SpaceX is targeting a launch at 6:15 p.m. PDT (9:15 p.m. EDT, 0115 UTC).


Newsletter sign-up

Weekly statistics, charts and insights to help you stay on top of the space industry.